Torna al catalogo

GGSE 3 DEB

AttivoLEO
NORAD 44043·DEBRIS·🇺🇸 United States

Lanciato Mar 9, 1965 da Vandenberg Space Force Base

Loading…

Prossimi Passaggi (prossime 24 ore)

TLE

AggiornatoSource: Space-Track

Epoca: Sep 14, 2026, 13:45 UTC

1 44043U 65016L   26257.57341543  .00000512  00000-0  35475-3 0  9992
2 44043  70.0740 109.6594 0018153 194.5870 165.4719 14.04340036388301

Traccia GGSE 3 DEB in tempo reale con AllMySat

Download on the App Store